Date,TemperatureHighF,TemperatureAvgF,TemperatureLowF,DewpointHighF,DewpointAvgF,DewpointLowF,HumidityHigh,HumidityAvg,HumidityLow,PressureMaxIn,PressureMinIn,WindSpeedMaxMPH,WindSpeedAvgMPH,GustSpeedMaxMPH,PrecipitationSumIn
2013-1-1,30.0,16.2,4.5,10.2,6.5,-5.3,82,66,43,30.42,30.30,8,2,9,0.00
2013-1-2,17.4,12.0,8.1,8.3,5.6,2.9,79,75,61,30.39,30.27,5,1,5,0.00
2013-1-3,32.5,15.5,0.5,11.4,3.2,-5.8,74,60,41,30.27,30.12,8,2,13,0.00
2013-1-4,39.6,26.4,17.6,17.2,8.6,2.3,53,47,40,30.27,30.18,14,5,14,0.00
2013-1-5,30.0,24.3,15.4,21.0,12.1,3.6,75,60,43,30.18,30.09,8,2,10,0.00
2013-1-6,41.0,30.9,22.8,20.1,17.2,13.2,77,57,42,30.12,30.03,10,4,11,0.00
2013-1-7,50.7,40.0,31.5,29.2,24.6,16.7,71,55,39,30.12,29.97,19,5,20,0.00
2013-1-8,50.5,43.3,34.0,30.5,27.3,23.0,68,54,43,30.12,29.97,19,9,29,0.00
2013-1-9,46.0,36.4,25.0,31.4,20.4,12.7,74,53,42,29.97,29.74,29,5,29,0.00
2013-1-10,34.0,25.8,19.0,20.6,13.8,9.3,81,61,42,29.94,29.85,11,3,19,0.00
2013-1-11,29.1,20.4,10.2,10.1,5.2,-2.4,66,52,42,30.12,29.94,9,2,12,0.00
2013-1-12,26.4,12.9,3.9,6.9,-2.1,-10.6,56,51,42,30.21,30.12,8,2,8,0.00
2013-1-13,28.9,13.5,2.5,8.2,-3.4,-11.9,50,46,41,30.27,30.18,6,2,8,0.00
2013-1-14,40.3,22.1,7.9,17.3,4.9,-8.2,71,48,39,30.33,30.24,12,3,15,0.00
2013-1-15,45.3,28.6,16.2,21.2,12.7,5.2,73,52,38,30.47,30.33,9,4,9,0.00
2013-1-16,52.7,34.4,21.0,26.4,14.4,5.5,53,44,36,30.47,30.39,10,4,10,0.00
2013-1-17,48.9,34.4,25.9,23.7,13.7,7.4,47,42,37,30.42,30.30,10,5,13,0.00
2013-1-18,48.4,33.4,23.4,23.6,12.8,5.1,46,42,37,30.30,30.24,11,5,13,0.00
2013-1-19,52.3,34.6,23.2,26.1,14.1,6.1,52,43,36,30.33,30.24,11,4,11,0.00
2013-1-20,49.3,31.2,20.8,24.1,12.3,5.6,60,46,37,30.33,30.24,10,3,10,0.00
2013-1-21,50.0,33.3,23.2,24.7,12.5,4.5,46,42,37,30.27,30.12,13,5,15,0.00
2013-1-22,47.8,31.1,24.6,22.8,12.9,6.3,64,47,37,30.15,30.00,11,4,11,0.00
2013-1-23,54.5,39.9,26.1,28.3,21.4,12.4,71,48,36,30.06,29.85,15,4,22,0.00
2013-1-24,52.3,43.0,34.0,31.8,27.6,23.6,85,56,38,30.12,30.06,19,5,20,0.00
2013-1-25,47.3,43.2,37.4,37.4,32.6,30.0,85,67,54,30.09,29.91,22,6,24,0.04
2013-1-26,43.0,33.6,24.4,31.2,19.3,14.8,90,57,39,29.97,29.85,11,3,16,0.00
2013-1-27,39.9,30.7,20.1,21.8,16.9,13.9,86,58,40,30.03,29.94,12,3,13,0.00
2013-1-28,39.6,35.1,0.0,19.9,17.6,0.0,61,49,41,30.03,29.94,23,4,24,0.00
2013-1-29,46.6,39.8,35.6,24.8,22.0,18.6,62,49,42,30.30,30.03,15,4,19,0.00
2013-1-30,49.5,40.2,33.1,27.6,24.2,20.0,72,53,41,30.33,30.30,8,3,13,0.00
2013-1-31,49.3,37.7,27.9,26.7,23.8,19.0,75,58,39,30.33,30.21,11,3,11,0.00
2013-2-1,50.5,34.8,24.3,26.8,21.2,14.8,83,60,37,30.33,30.21,7,2,9,0.00
2013-2-2,49.8,33.6,20.7,26.0,20.9,14.3,86,62,39,30.33,30.21,6,2,8,0.00
2013-2-3,55.6,40.2,28.9,28.5,22.6,17.9,76,51,35,30.21,30.09,10,3,13,0.00
2013-2-4,53.1,42.1,33.1,26.8,21.4,16.6,54,44,36,30.12,29.91,15,3,15,0.00
2013-2-5,49.1,42.4,33.1,25.7,20.6,16.9,55,42,37,30.00,29.88,15,6,21,0.00
2013-2-6,47.8,38.6,30.9,23.4,19.1,15.8,57,45,38,30.03,29.85,15,6,22,0.00
2013-2-7,39.6,32.4,21.4,23.7,16.7,10.5,72,53,40,30.00,29.85,9,2,12,0.00
2013-2-8,39.0,27.2,15.1,19.9,13.8,8.0,76,59,40,30.09,30.00,10,2,15,0.00
2013-2-9,43.3,28.0,13.8,21.2,14.9,5.9,78,59,41,30.15,30.03,9,2,13,0.00
2013-2-10,44.6,31.0,19.4,25.2,17.0,10.4,79,58,38,30.21,30.12,8,1,10,0.00
2013-2-11,49.3,34.8,18.7,24.7,18.8,11.2,81,54,37,30.24,30.12,9,3,13,0.00
2013-2-12,49.3,37.0,25.3,26.7,22.1,16.3,86,57,38,30.33,30.24,13,4,14,0.00
2013-2-13,48.0,37.0,25.9,26.4,22.6,17.9,84,58,39,30.36,30.27,10,2,11,0.00
2013-2-14,53.1,37.3,24.8,31.5,24.5,20.1,94,63,38,30.42,30.36,9,2,10,0.00
2013-2-15,58.5,37.9,25.3,32.2,25.5,20.1,91,65,36,30.42,30.21,11,2,11,0.00
2013-2-16,56.1,40.3,27.3,29.5,21.5,14.7,87,49,36,30.21,30.06,15,5,17,0.00
2013-2-17,43.3,30.6,16.2,19.4,15.2,10.2,83,55,38,30.12,30.00,10,2,10,0.00
2013-2-18,39.7,30.2,20.3,17.9,14.8,11.4,73,53,40,30.00,29.71,6,2,9,0.00
2013-2-19,41.4,29.2,19.6,19.4,14.6,9.0,74,55,39,29.88,29.65,10,2,11,0.00
2013-2-20,42.6,30.6,18.1,19.4,15.4,8.9,75,55,39,29.97,29.85,10,2,13,0.00
2013-2-21,39.7,33.1,22.8,20.1,17.3,14.5,80,54,40,30.09,29.97,11,3,11,0.00
2013-2-22,45.7,36.7,27.9,27.5,21.3,16.1,85,54,40,30.09,29.82,25,8,29,0.00
2013-2-23,38.3,29.9,19.9,21.9,14.9,10.2,78,55,40,30.27,29.94,14,4,21,0.00
2013-2-24,46.4,32.1,18.1,23.3,16.6,11.0,82,55,38,30.30,30.03,22,4,22,0.00
2013-2-25,43.0,35.0,21.7,28.5,18.1,10.4,77,51,39,30.21,29.97,20,6,24,0.00
2013-2-26,48.9,34.3,17.2,23.7,16.2,9.9,81,50,37,30.24,30.15,13,4,15,0.00
2013-2-27,49.8,39.3,27.0,25.2,17.7,8.4,47,41,38,30.24,30.18,15,5,17,0.00
2013-2-28,57.2,46.1,39.9,33.0,29.4,21.1,72,53,38,30.39,30.18,23,7,23,0.00
2013-3-1,62.1,47.9,36.0,33.4,28.2,21.2,74,48,34,30.42,30.27,13,4,15,0.00
2013-3-2,57.7,47.1,34.2,30.6,26.3,23.3,67,45,35,30.27,30.06,13,4,14,0.00
2013-3-3,43.7,34.2,19.8,26.9,17.0,5.5,75,50,38,30.15,30.06,11,3,13,0.00
2013-3-4,51.3,30.9,12.7,25.8,12.6,1.5,75,48,37,30.15,29.91,11,2,17,0.00
2013-3-5,43.2,32.6,22.3,26.5,17.4,8.5,76,54,40,29.91,29.68,8,2,11,0.00
2013-3-6,43.5,34.9,30.2,31.5,22.9,15.7,92,64,40,29.91,29.53,26,5,26,0.00
2013-3-7,45.9,34.7,23.4,25.8,18.1,13.2,79,52,38,29.97,29.88,10,4,13,0.00
2013-3-8,46.2,31.3,21.6,28.8,19.7,12.5,82,64,39,30.12,29.94,13,1,18,0.08
2013-3-9,54.7,34.4,15.1,28.2,16.7,6.7,75,50,36,30.39,30.12,10,2,13,0.00
2013-3-10,60.6,43.2,25.3,32.8,23.3,0.0,68,46,35,30.39,30.27,15,4,15,0.00
2013-3-11,57.9,43.6,29.8,33.2,28.8,22.7,91,58,37,30.30,30.18,8,2,11,0.00
2013-3-12,63.9,47.4,32.5,34.9,29.1,19.6,93,52,34,30.21,30.06,12,3,12,0.00
2013-3-13,67.6,48.8,36.7,37.4,26.7,21.3,58,43,33,30.18,30.09,8,1,11,0.00
2013-3-14,69.3,53.5,36.1,38.9,28.7,20.4,65,39,33,30.15,30.03,16,6,22,0.00
2013-3-15,60.1,43.2,29.3,32.3,24.6,16.6,79,49,35,30.18,30.09,9,2,13,0.00
2013-3-16,54.3,38.3,25.3,30.7,23.5,18.2,84,59,36,30.12,29.91,22,4,25,0.00
2013-3-17,43.0,33.2,23.0,24.2,15.4,9.4,72,48,38,30.12,29.97,17,3,17,0.00
2013-3-18,55.0,32.5,13.3,28.5,14.5,4.1,73,49,36,30.15,30.06,12,2,12,0.00
2013-3-19,51.1,36.8,24.1,41.3,21.3,8.6,94,55,37,30.12,29.74,10,1,16,0.04
2013-3-20,51.8,42.3,27.7,37.5,27.1,16.0,85,55,38,30.03,29.65,21,6,30,0.08
2013-3-21,44.2,31.5,19.4,20.8,14.6,8.9,72,50,38,30.12,30.03,15,4,19,0.00
2013-3-22,39.7,30.7,21.9,18.6,13.3,9.0,73,49,39,30.21,30.12,17,5,24,0.00
2013-3-23,45.0,31.7,20.8,20.8,13.9,7.9,67,49,38,30.24,30.12,9,2,11,0.00
2013-3-24,48.2,34.1,18.9,23.6,15.3,7.2,64,46,37,30.18,30.06,11,2,11,0.00
2013-3-25,52.5,40.9,28.8,26.9,20.8,16.5,63,45,37,30.06,29.88,9,2,11,0.00
2013-3-26,52.9,43.0,36.3,34.0,27.8,21.1,75,56,39,29.97,29.91,8,2,9,0.00
2013-3-27,58.6,43.1,26.8,40.2,30.6,21.1,92,65,36,29.97,29.88,17,2,23,0.04
2013-3-28,60.1,46.1,37.4,40.8,36.1,30.5,93,72,36,30.12,29.97,11,2,14,0.16
2013-3-29,64.8,48.5,36.1,42.9,35.7,27.8,94,66,35,30.18,30.09,13,2,13,0.00
2013-3-30,70.0,50.1,31.3,39.7,32.7,25.1,97,56,33,30.18,30.03,13,2,13,0.00
2013-3-31,67.5,50.1,29.8,38.1,31.6,23.2,81,52,33,30.06,29.91,11,3,13,0.00
2013-4-1,63.7,49.2,0.0,41.7,33.0,0.0,85,56,35,30.09,29.94,12,3,17,0.00
2013-4-2,64.4,47.2,29.8,37.8,30.1,25.1,97,56,34,30.15,30.06,13,2,16,0.00
2013-4-3,68.9,51.7,32.4,38.5,31.4,24.5,83,49,33,30.12,29.94,11,3,13,0.00
2013-4-4,64.6,52.2,42.8,36.8,31.0,27.6,77,45,34,29.97,29.74,24,6,30,0.00
2013-4-5,58.1,48.0,40.5,34.6,30.1,27.5,65,51,36,29.97,29.88,20,8,23,0.00
2013-4-6,56.3,46.8,40.6,32.4,28.2,23.9,67,49,36,29.97,29.80,26,8,27,0.00
2013-4-7,54.7,43.4,33.4,30.9,24.1,17.1,66,47,36,29.85,29.65,32,9,32,0.00
2013-4-8,48.2,36.8,22.8,23.3,18.8,12.5,69,49,38,30.18,29.85,18,4,20,0.00
2013-4-9,60.4,40.8,17.4,32.4,21.8,8.0,73,49,34,30.27,30.18,14,2,14,0.00
2013-4-10,61.5,48.3,32.7,35.8,28.4,20.6,74,47,36,30.21,30.06,29,6,29,0.00
2013-4-11,55.2,40.5,19.0,28.5,21.7,11.5,81,49,36,30.21,30.09,15,3,15,0.00
2013-4-12,63.7,44.0,20.8,34.7,23.3,8.5,76,46,34,30.12,29.77,26,6,26,0.00
2013-4-13,51.8,40.3,30.4,27.2,19.4,13.9,51,43,36,30.00,29.80,17,7,25,0.00
2013-4-14,50.7,34.3,21.7,25.3,16.4,9.0,79,49,37,30.03,29.85,11,3,15,0.00
2013-4-15,41.5,31.9,23.5,30.0,24.1,16.2,88,74,42,30.09,29.85,15,2,17,0.08
2013-4-16,45.0,35.1,27.3,27.8,23.9,18.6,87,66,39,30.30,30.06,16,3,16,0.04
2013-4-17,51.8,36.2,17.8,26.1,19.6,10.6,79,54,36,30.39,30.30,13,3,16,0.04
2013-4-18,65.1,46.5,29.7,36.0,26.3,17.0,62,46,34,30.36,30.30,10,4,15,0.00
2013-4-19,60.1,49.0,41.4,34.6,30.1,26.3,67,49,35,30.30,30.12,17,6,27,0.00
2013-4-20,65.7,45.2,27.9,36.5,26.8,19.4,83,51,34,30.24,30.18,15,3,15,0.00
2013-4-21,65.7,45.3,25.2,36.5,27.3,17.9,93,52,34,30.24,30.15,17,4,19,0.00
2013-4-22,63.9,43.5,26.2,34.9,23.7,6.8,71,47,34,30.39,30.24,13,4,15,0.00
2013-4-23,72.3,42.2,14.2,40.7,19.2,0.5,56,40,32,30.39,30.12,12,3,21,0.00
2013-4-24,75.0,48.7,19.6,42.2,23.4,1.7,45,37,31,30.30,30.09,9,2,13,0.00
2013-4-25,79.5,53.7,30.2,45.3,27.5,9.9,46,37,30,30.21,30.06,12,4,15,0.00
2013-4-26,82.6,57.8,35.2,47.4,32.5,19.2,66,40,29,30.30,30.21,13,3,16,0.00
2013-4-27,74.1,58.5,38.7,41.5,32.0,19.4,54,37,31,30.33,30.21,15,4,24,0.00
2013-4-28,65.8,51.2,32.7,35.9,27.3,18.2,58,40,33,30.27,30.15,17,4,19,0.00
2013-4-29,61.2,50.3,35.4,33.5,27.8,16.3,54,42,34,30.15,30.06,26,8,26,0.00
2013-4-30,59.4,39.2,23.5,31.6,18.3,8.9,56,43,35,30.42,30.15,17,4,18,0.00
2013-5-1,70.9,43.2,16.5,39.5,20.7,3.5,63,42,32,30.56,30.42,11,3,15,0.00
2013-5-2,82.6,53.9,26.8,47.6,27.6,8.9,53,37,30,30.56,30.33,15,3,15,0.00
2013-5-3,78.3,54.8,30.9,45.1,28.3,12.1,46,37,31,30.36,30.24,15,3,17,0.00
2013-5-4,76.5,53.9,30.4,43.5,28.5,14.4,53,38,31,30.30,30.06,16,5,24,0.00
2013-5-5,78.6,56.9,33.6,44.9,30.7,16.7,54,38,31,30.09,29.94,21,5,21,0.00
2013-5-6,81.9,63.4,38.5,47.0,35.0,21.0,49,35,29,30.03,29.91,17,4,17,0.00
2013-5-7,87.1,63.1,40.5,50.9,38.2,29.7,72,42,29,30.12,30.00,22,4,22,0.00
2013-5-8,84.2,62.2,40.8,48.4,38.4,30.5,72,44,29,30.24,30.12,13,3,21,0.00
2013-5-9,84.2,63.2,49.8,53.7,43.3,36.7,85,52,29,30.30,30.21,17,4,27,0.20
2013-5-10,87.3,66.6,50.2,51.0,42.8,38.3,77,45,29,30.39,30.27,20,4,20,0.00
2013-5-11,90.1,70.2,51.4,52.5,44.7,38.8,68,43,28,30.39,30.21,16,3,18,0.00
2013-5-12,87.1,69.0,53.2,50.9,43.7,35.7,70,42,29,30.30,30.18,17,4,23,0.00
2013-5-13,73.2,57.6,41.7,41.5,36.0,27.3,77,46,32,30.33,30.21,25,5,29,0.00
2013-5-14,71.8,51.5,30.4,40.3,30.4,21.9,74,47,32,30.33,30.21,11,3,15,0.00
2013-5-15,65.8,50.6,36.1,41.6,31.3,24.4,69,49,34,30.27,30.18,11,2,15,0.00
2013-5-16,63.3,50.0,35.6,40.5,34.3,27.8,82,58,35,30.21,30.09,12,2,19,0.04
2013-5-17,60.4,49.2,36.0,41.3,32.6,25.2,87,55,35,30.27,30.15,13,2,17,0.04
2013-5-18,61.5,46.2,29.5,34.3,28.6,23.1,85,53,35,30.42,30.27,15,3,17,0.00
2013-5-19,69.8,49.6,30.9,38.7,30.1,21.4,85,50,32,30.50,30.42,11,4,19,0.00
2013-5-20,83.7,56.2,28.8,47.9,32.5,18.3,76,43,29,30.50,30.12,10,3,13,0.00
2013-5-21,60.4,49.7,33.1,36.5,27.1,17.3,61,42,35,30.15,30.00,23,7,31,0.00
2013-5-22,52.3,41.0,29.8,26.8,20.6,13.5,53,44,37,30.15,30.12,17,7,22,0.00
2013-5-23,63.0,45.7,28.6,33.8,24.6,18.5,71,45,34,30.21,30.15,17,3,17,0.00
2013-5-24,62.2,48.0,35.1,33.5,27.1,20.3,69,45,34,30.24,30.18,13,4,17,0.00
2013-5-25,66.9,48.4,26.1,39.8,28.4,15.3,74,48,33,30.27,30.15,11,3,13,0.00
2013-5-26,63.3,51.2,40.5,45.2,36.0,28.8,92,60,34,30.27,30.18,11,2,14,0.08
2013-5-27,61.5,50.5,36.3,38.9,32.7,28.0,82,51,38,30.24,30.03,19,5,22,0.00
2013-5-28,74.5,54.7,40.3,41.8,33.0,27.7,75,45,31,30.15,30.03,15,3,15,0.00
2013-5-29,61.5,52.0,44.1,44.4,33.1,27.2,91,51,35,30.24,29.94,25,5,25,0.08
2013-5-30,67.1,49.0,30.7,37.0,28.5,21.5,76,47,33,30.42,30.24,13,3,17,0.00
2013-5-31,77.5,53.3,28.2,44.4,29.9,17.5,70,43,31,30.50,30.39,12,3,13,0.00
2013-6-1,83.3,60.7,35.1,47.6,34.8,21.3,59,39,29,30.44,30.24,11,3,15,0.00
2013-6-2,77.5,57.5,39.0,44.4,34.6,25.1,70,44,31,30.30,30.18,13,4,17,0.00
2013-6-3,83.1,58.3,32.9,47.6,33.2,20.7,67,41,29,30.33,30.21,11,3,13,0.00
2013-6-4,86.5,61.8,35.6,50.4,33.3,15.9,45,35,29,30.36,30.27,12,3,15,0.00
2013-6-5,94.1,68.8,41.4,54.9,39.0,22.9,49,35,27,30.36,30.21,11,3,13,0.00
2013-6-6,91.2,69.5,46.6,53.4,41.3,30.2,55,37,28,30.30,30.21,13,3,13,0.00
2013-6-7,88.2,68.4,47.3,50.9,41.1,32.1,65,39,28,30.36,30.27,15,4,23,0.00
2013-6-8,94.3,69.7,44.8,55.0,41.9,31.1,72,39,27,30.39,30.27,10,3,15,0.00
2013-6-9,87.1,66.8,45.7,50.9,37.9,26.8,52,35,29,30.30,30.18,13,3,17,0.00
2013-6-10,84.7,59.7,34.0,48.9,32.7,17.7,52,37,29,30.24,30.06,15,4,17,0.00
2013-6-11,67.1,52.3,34.5,37.0,29.3,19.7,76,42,33,30.39,30.18,13,4,18,0.00
2013-6-12,68.4,49.5,29.7,38.1,27.9,18.5,70,45,33,30.42,30.36,15,4,15,0.00
2013-6-13,62.4,52.6,37.9,34.3,29.8,23.3,63,42,34,30.56,30.42,15,6,21,0.00
2013-6-14,80.6,55.3,28.6,46.2,32.2,20.0,76,45,30,30.56,30.30,10,3,13,0.00
2013-6-15,84.6,63.0,35.6,48.7,35.3,18.8,51,37,29,30.36,30.21,11,3,16,0.00
2013-6-16,83.3,63.8,44.2,47.6,38.3,29.9,60,40,29,30.47,30.33,18,3,18,0.00
2013-6-17,81.0,62.2,41.2,46.5,38.3,29.5,72,43,30,30.47,30.27,16,4,17,0.00
2013-6-18,66.4,54.8,47.8,45.1,35.4,29.5,78,49,34,30.36,30.24,17,4,17,0.04
2013-6-19,61.9,50.4,41.2,37.0,32.1,27.7,78,51,35,30.47,30.30,13,3,17,0.00
2013-6-20,69.3,49.6,28.6,38.9,29.9,21.7,77,49,33,30.50,30.42,13,3,21,0.00
2013-6-21,62.6,52.1,38.1,39.2,32.2,25.6,77,48,35,30.56,30.50,12,3,15,0.00
2013-6-22,79.2,60.3,33.6,45.4,36.0,24.7,79,43,30,30.56,30.30,10,3,12,0.00
2013-6-23,64.8,58.8,54.5,55.4,46.2,35.5,92,65,39,30.33,30.15,6,1,9,0.28
2013-6-24,61.7,54.1,47.3,53.6,45.1,38.9,93,74,45,30.24,30.15,10,2,15,0.20
2013-6-25,66.9,58.4,50.5,45.0,39.4,35.1,78,51,36,30.39,30.21,13,5,20,0.00
2013-6-26,69.1,59.6,51.4,52.6,43.7,39.6,72,56,41,30.56,30.39,9,3,11,0.00
2013-6-27,90.5,67.3,44.1,52.8,44.6,38.5,84,49,28,30.65,30.53,14,3,17,0.00
2013-6-28,95.4,74.3,52.2,56.0,48.5,43.8,75,44,27,30.68,30.47,11,3,14,0.00
2013-6-29,90.1,75.0,58.8,52.9,48.3,42.5,70,41,28,30.56,30.44,12,3,16,0.00
2013-6-30,100.2,78.0,53.6,59.0,48.9,43.1,70,39,26,30.53,30.36,15,4,15,0.00
2013-7-1,102.4,83.1,67.3,59.7,50.6,44.0,47,33,25,30.59,30.44,13,4,17,0.00
2013-7-2,100.9,81.5,60.4,59.0,52.2,46.9,70,39,25,30.62,30.50,14,3,18,0.00
2013-7-3,95.4,76.6,58.6,55.8,48.2,37.1,64,39,27,30.65,30.53,17,3,17,0.00
2013-7-4,88.9,69.0,47.8,51.4,39.9,30.9,55,36,28,30.65,30.50,16,4,17,0.00
2013-7-5,84.9,62.4,41.0,49.0,36.1,26.0,67,39,29,30.59,30.47,13,3,16,0.00
2013-7-6,88.7,64.1,36.1,51.3,35.2,16.4,49,35,28,30.59,30.44,15,3,18,0.00
2013-7-7,93.4,69.1,44.4,54.3,40.8,28.5,55,37,27,30.59,30.47,14,4,15,0.00
2013-7-8,93.7,70.1,47.8,54.6,43.1,33.2,79,40,27,30.71,30.59,11,3,15,0.00
2013-7-9,100.0,74.7,48.4,58.8,43.4,29.6,49,34,26,30.77,30.62,13,3,17,0.00
2013-7-10,92.8,74.4,55.2,53.8,44.5,37.0,56,36,27,30.71,30.53,15,3,17,0.00
2013-7-11,88.0,67.7,47.3,51.3,38.9,27.9,50,36,28,30.68,30.53,13,3,17,0.00
2013-7-12,82.2,61.9,39.9,47.6,34.1,20.5,54,36,30,30.71,30.56,19,4,19,0.00
2013-7-13,87.3,62.5,36.7,51.0,35.1,20.9,55,37,29,30.83,30.68,12,3,15,0.00
2013-7-14,97.9,69.8,41.4,57.0,38.6,18.2,39,33,26,30.83,30.62,13,3,17,0.00
2013-7-15,94.8,71.3,46.6,55.5,40.7,27.0,49,34,27,30.74,30.53,17,4,17,0.00
2013-7-16,91.2,72.5,60.4,53.4,40.6,32.2,35,32,28,30.65,30.53,12,5,15,0.00
2013-7-17,95.4,74.1,53.8,56.0,42.4,31.1,43,33,27,30.83,30.65,13,5,19,0.00
2013-7-18,99.0,73.4,46.2,57.9,42.2,27.2,48,34,26,30.86,30.68,13,3,17,0.00
2013-7-19,101.3,74.5,46.6,58.8,43.1,27.9,49,34,25,30.80,30.65,13,3,15,0.00
2013-7-20,100.9,74.0,47.5,58.8,42.5,28.8,50,33,25,30.74,30.59,13,3,15,0.00
2013-7-21,101.1,75.0,46.2,58.8,43.0,21.5,47,33,25,30.68,30.59,16,4,22,0.00
2013-7-22,102.0,75.5,50.5,59.4,43.2,26.8,44,32,25,30.74,30.62,15,4,15,0.00
2013-7-23,100.4,76.8,49.6,59.0,44.3,26.3,47,32,25,30.77,30.62,13,4,15,0.00
2013-7-24,97.7,76.6,56.5,56.9,44.1,32.7,44,32,26,30.77,30.68,13,3,13,0.00
2013-7-25,102.7,77.1,50.2,60.0,44.2,28.3,45,32,25,30.80,30.68,13,3,16,0.00
2013-7-26,100.9,78.2,55.6,59.0,44.3,29.0,36,31,25,30.83,30.74,13,4,17,0.00
2013-7-27,93.4,69.6,45.7,54.3,38.7,22.1,41,33,27,30.83,30.65,16,3,17,0.00
2013-7-28,90.9,65.2,40.1,53.1,36.8,23.5,53,36,28,30.74,30.59,11,3,19,0.00
2013-7-29,84.0,66.3,42.1,48.2,38.5,26.9,69,37,29,30.74,30.59,10,3,13,0.00
2013-7-30,90.1,68.8,43.9,52.5,40.9,29.4,68,38,28,30.83,30.71,15,4,15,0.00
2013-7-31,84.2,67.8,54.3,48.4,39.7,32.0,69,37,29,30.83,30.68,16,2,16,0.00
2013-8-1,73.9,59.7,48.0,52.3,42.9,34.8,88,56,32,30.80,30.68,17,3,17,0.08
2013-8-2,82.0,59.4,38.8,47.4,37.5,31.5,90,48,30,30.86,30.71,11,3,13,0.00
2013-8-3,92.3,65.9,41.2,53.4,39.4,29.2,69,40,27,30.86,30.68,12,3,14,0.00
2013-8-4,95.9,71.9,47.1,56.4,42.4,30.5,55,36,27,30.83,30.65,13,4,15,0.00
2013-8-5,94.6,72.7,50.7,55.3,42.2,31.0,49,34,27,30.80,30.62,15,3,15,0.00
2013-8-6,96.8,73.9,49.3,56.6,43.6,31.2,55,35,26,30.77,30.65,13,4,17,0.00
2013-8-7,90.9,70.6,51.4,53.1,40.4,30.5,46,34,28,30.77,30.68,13,3,20,0.00
2013-8-8,88.3,70.6,50.9,51.2,40.7,29.6,49,34,28,30.77,30.62,13,2,16,0.00
2013-8-9,86.4,68.4,52.3,50.5,42.0,35.7,71,40,29,30.74,30.59,25,3,25,0.04
2013-8-10,80.1,60.4,46.4,47.0,41.6,38.3,93,54,30,30.80,30.68,20,2,20,0.00
2013-8-11,80.4,65.2,49.6,46.0,41.2,38.2,73,44,30,30.83,30.71,11,4,17,0.00
2013-8-12,83.5,66.2,46.4,48.2,41.7,35.0,74,44,29,30.83,30.68,11,3,13,0.00
2013-8-13,93.9,70.3,48.7,54.7,43.2,33.0,66,40,27,30.86,30.68,13,4,14,0.00
2013-8-14,91.0,71.4,50.7,53.3,42.8,33.7,53,37,28,30.77,30.62,14,3,18,0.00
2013-8-15,91.0,70.4,50.0,53.3,43.1,33.2,67,39,28,30.77,30.62,23,3,23,0.00
2013-8-16,88.7,69.5,52.3,52.9,44.8,39.3,65,43,28,30.80,30.71,17,3,17,0.00
2013-8-17,87.1,68.4,50.9,50.9,44.2,36.3,74,45,29,30.86,30.68,17,3,17,0.00
2013-8-18,100.2,69.8,49.5,59.0,43.7,35.0,72,42,26,30.89,30.77,12,3,12,0.00
2013-8-19,97.5,70.8,46.6,56.7,43.0,32.1,68,39,26,30.89,30.71,16,4,16,0.00
2013-8-20,95.4,66.4,44.2,55.8,39.5,28.3,63,39,27,30.86,30.71,13,2,13,0.00
2013-8-21,88.3,67.6,46.6,51.2,37.1,21.7,38,33,28,30.83,30.68,11,3,11,0.00
2013-8-22,84.2,64.9,54.5,48.2,40.0,28.0,63,41,29,30.77,30.68,26,3,26,0.00
2013-8-23,86.2,67.6,54.5,49.2,42.5,38.3,62,42,29,30.71,30.56,17,5,17,0.00
2013-8-24,80.6,62.0,46.4,56.1,43.4,34.6,83,54,30,30.68,30.56,17,2,17,0.08
2013-8-25,72.9,59.0,51.8,58.7,47.9,41.5,87,70,35,30.74,30.62,26,1,26,0.31
2013-8-27,92.8,72.5,0.0,53.8,43.6,0.0,61,36,27,30.77,30.53,14,4,14,0.08
2013-8-28,87.6,69.2,49.8,51.0,45.0,41.3,79,45,29,30.71,30.56,20,4,20,0.00
2013-8-29,85.5,68.0,55.6,49.0,44.5,37.1,72,45,29,30.83,30.68,20,4,20,0.00
2013-8-30,85.1,66.7,48.9,50.0,44.3,39.3,89,49,29,30.95,30.74,14,3,14,0.00
2013-8-31,88.2,68.9,46.9,51.3,43.9,38.0,76,44,29,30.86,30.59,15,3,15,0.00
2013-9-1,94.3,72.4,49.6,55.0,44.6,35.9,65,39,27,30.71,30.53,17,4,20,0.00
2013-9-2,85.5,66.8,48.7,49.5,43.5,39.0,73,46,29,30.74,30.56,17,3,17,0.00
2013-9-3,84.0,64.4,47.5,48.2,42.2,37.6,86,48,29,30.80,30.68,22,4,22,0.00
2013-9-4,84.6,63.7,43.0,48.7,41.0,34.5,84,47,29,30.86,30.68,18,4,18,0.00
2013-9-5,73.4,57.2,44.8,49.2,39.8,34.8,79,55,32,30.89,30.71,31,2,31,0.16
2013-9-6,72.3,58.4,44.6,43.7,38.8,35.9,85,51,33,31.01,30.86,16,4,16,0.04
2013-9-7,78.3,60.5,38.7,45.1,39.3,33.1,88,50,31,31.01,30.83,15,3,15,0.00
2013-9-8,75.4,60.2,42.8,44.4,38.3,31.0,75,47,31,31.95,28.38,15,2,15,0.00
2013-9-9,83.5,64.9,44.6,47.8,38.8,29.8,69,40,29,31.06,28.38,17,3,17,0.00
2013-9-10,86.4,67.1,44.6,50.2,39.5,29.1,64,38,29,28.38,28.38,13,3,13,0.00
2013-9-11,91.9,68.7,46.6,53.3,40.3,29.9,56,37,27,28.38,28.38,13,3,13,0.00
2013-9-12,92.8,70.9,48.7,53.4,41.4,30.8,52,36,27,30.92,28.38,12,2,12,0.00
2013-9-13,83.1,67.6,50.5,47.5,38.9,29.8,47,36,29,28.38,28.38,10,2,10,0.00
2013-9-14,91.9,69.9,48.9,52.9,42.6,34.5,65,39,27,28.38,28.38,15,3,15,0.00
2013-9-15,89.8,69.9,52.5,52.2,41.6,33.9,54,37,28,28.38,28.38,19,4,19,0.00
2013-9-16,72.9,57.6,41.7,41.0,35.8,30.4,73,46,32,28.38,28.38,13,3,13,0.00
2013-9-17,61.2,51.2,44.8,46.6,34.9,30.3,76,54,38,28.38,28.38,21,3,21,0.04
2013-9-18,70.2,51.5,38.3,39.2,31.4,21.3,76,49,33,28.38,28.38,11,2,14,0.00
2013-9-19,85.1,56.0,33.4,48.4,33.1,20.6,80,45,29,28.38,28.38,17,3,17,0.00
2013-9-20,77.7,56.4,35.8,44.6,32.5,19.7,56,41,31,29.77,28.38,17,5,17,11.54
2013-9-21,67.1,55.1,43.2,39.6,33.2,30.7,71,45,33,29.80,29.71,17,6,17,0.00
2013-9-22,63.5,49.2,34.7,39.1,32.9,29.1,85,56,35,29.85,29.77,27,6,27,0.00
2013-9-23,65.8,50.8,33.1,37.0,32.2,27.3,85,51,34,29.97,29.85,25,4,25,0.00
2013-9-24,52.9,46.8,40.5,43.2,34.2,28.5,82,62,41,29.97,29.82,10,2,12,0.04
2013-9-25,52.0,43.0,31.5,35.5,29.6,22.3,85,61,38,29.97,29.80,15,2,15,0.00
2013-9-26,55.6,39.3,23.9,33.6,25.8,17.7,82,61,37,30.12,29.97,13,2,13,0.00
2013-9-27,64.4,46.9,26.8,35.7,29.8,20.5,83,54,33,30.12,29.97,18,5,18,0.00
2013-9-28,64.0,56.3,45.9,45.6,37.1,33.6,86,50,35,30.00,29.65,29,10,29,0.20
2013-9-29,53.1,47.4,42.3,46.1,36.1,25.8,92,66,39,29.80,29.56,29,9,29,0.43
2013-9-30,54.1,45.8,36.1,46.5,29.4,23.1,88,55,37,29.97,29.62,20,6,25,0.04
2013-10-1,53.6,42.2,29.3,33.1,26.0,20.6,82,54,37,30.15,29.94,21,4,21,0.04
2013-10-2,50.7,38.3,26.2,31.9,24.4,21.6,89,60,37,30.15,29.97,15,3,15,0.00
2013-10-3,51.6,38.2,28.0,31.7,24.5,18.4,83,60,38,30.33,30.06,11,2,11,0.00
2013-10-4,59.7,40.5,24.3,31.6,24.0,16.7,90,55,35,30.42,30.33,10,2,10,0.00
2013-10-5,75.7,47.9,28.0,42.6,27.8,18.1,77,49,31,30.36,30.18,11,3,11,0.00
2013-10-6,73.9,51.7,32.2,41.5,29.0,17.1,70,43,31,30.21,29.97,15,3,15,0.00
2013-10-7,59.4,48.2,31.5,31.6,25.9,21.2,69,42,35,30.06,29.94,16,5,16,0.00
2013-10-8,50.5,40.8,29.7,36.5,27.6,20.5,80,61,38,30.06,29.91,12,3,12,0.00
2013-10-9,45.7,39.2,31.5,30.9,27.5,24.8,83,64,46,30.00,29.94,11,3,13,0.00
2013-10-10,58.6,43.4,27.7,31.0,26.2,18.5,78,53,35,30.03,29.88,21,3,21,0.00
2013-10-11,54.9,42.7,30.0,29.0,26.1,19.8,85,54,37,30.06,30.00,11,3,11,0.00
2013-10-12,49.6,39.4,28.9,33.0,26.5,19.7,79,61,39,30.09,29.97,13,2,13,0.00
2013-10-13,51.4,43.0,28.8,34.3,29.2,18.8,78,60,39,30.24,30.09,8,3,8,0.00
2013-10-14,54.7,38.1,22.1,28.7,21.5,14.1,73,53,36,30.30,30.24,11,2,11,0.00
2013-10-15,61.3,38.3,19.4,32.8,20.4,10.6,74,50,34,30.33,30.12,11,2,11,0.00
2013-10-16,63.1,44.9,29.5,34.2,22.9,14.0,61,42,34,30.15,30.06,13,3,13,0.00
2013-10-17,60.6,40.2,23.5,32.8,21.3,12.1,62,48,35,30.21,30.15,10,1,10,0.00
2013-10-18,63.1,41.0,23.5,34.3,22.9,14.4,70,50,34,30.24,30.12,9,1,9,0.00
2013-10-19,75.2,48.6,28.9,41.9,27.5,15.7,87,47,31,30.15,30.06,10,2,10,0.00
2013-10-20,70.0,47.1,27.9,39.0,24.9,14.4,62,43,33,30.18,30.09,9,2,9,0.00
2013-10-21,69.6,48.5,30.6,39.2,27.6,17.7,73,46,33,30.15,30.06,11,2,11,0.00
2013-10-22,69.3,47.3,30.2,38.9,27.8,19.6,81,50,33,30.15,30.03,10,2,10,0.00
2013-10-23,66.6,46.2,31.1,36.6,27.3,19.5,85,50,33,30.09,30.00,11,2,11,0.00
2013-10-24,67.5,45.5,28.4,37.1,27.3,18.3,91,51,33,30.12,30.03,9,1,9,0.00
2013-10-25,70.5,48.4,31.3,39.2,28.4,18.4,79,48,32,30.21,30.12,10,2,10,0.00
2013-10-26,69.6,47.0,30.4,39.0,26.6,17.4,63,46,33,30.24,30.09,13,3,13,0.00
2013-10-27,55.8,39.2,29.3,40.3,29.8,19.0,95,71,36,30.09,29.74,30,4,30,0.12
2013-10-28,40.1,34.9,31.5,39.0,21.7,12.9,96,60,43,29.88,29.77,20,6,20,0.00
2013-10-29,45.5,32.1,20.5,21.3,14.5,9.5,64,49,38,30.00,29.88,8,1,8,0.00
2013-10-30,56.5,38.1,22.8,29.6,21.9,12.5,79,54,35,30.12,30.00,8,3,8,0.00
2013-10-31,60.4,47.8,33.8,37.8,31.7,23.2,74,55,38,30.21,30.09,13,3,13,0.00
2013-11-1,57.9,43.7,29.1,38.8,31.6,23.9,96,65,38,30.24,29.94,12,2,12,0.00
2013-11-2,52.7,43.3,28.4,37.5,26.0,16.5,73,51,38,30.00,29.77,27,7,27,0.00
2013-11-3,43.7,34.7,23.5,25.5,20.5,17.4,81,58,39,30.06,29.97,20,3,20,0.00
2013-11-4,48.0,39.1,32.2,24.2,22.6,20.7,70,52,38,30.09,30.03,15,3,15,0.00
2013-11-5,54.0,45.3,39.0,36.6,30.8,23.0,76,57,44,30.18,30.06,20,6,20,0.00
2013-11-6,58.6,46.6,36.5,43.2,36.2,32.8,93,69,41,30.24,30.09,15,2,15,0.00
2013-11-7,57.2,45.0,32.0,41.7,30.5,19.2,85,57,40,30.09,29.88,24,4,24,0.04
2013-11-8,46.4,38.0,27.9,26.9,22.4,19.9,77,54,39,30.12,30.06,13,2,13,0.00
2013-11-9,49.5,35.7,23.9,28.7,23.8,17.1,86,64,38,30.06,30.00,13,2,13,0.00
2013-11-10,62.8,43.0,29.1,34.3,28.8,21.5,88,61,34,30.12,30.03,17,2,17,0.00
2013-11-11,41.7,37.6,28.2,35.2,30.2,21.0,88,75,61,30.21,30.12,6,1,6,0.00
2013-11-12,60.1,43.7,30.2,37.0,31.4,24.0,89,65,37,30.33,30.15,17,3,17,0.00
2013-11-13,56.3,37.8,25.3,37.0,24.2,15.5,86,61,36,30.36,30.21,9,1,9,0.00
2013-11-14,47.8,33.5,21.7,23.7,19.0,12.8,86,57,38,30.21,29.97,15,2,15,0.00
2013-11-15,44.8,33.9,18.1,21.9,18.1,11.6,81,54,39,30.00,29.56,20,4,20,0.00
2013-11-16,49.1,40.6,34.7,23.7,20.8,18.8,60,45,37,29.80,29.50,20,4,20,0.00
2013-11-17,49.6,38.8,27.5,25.2,20.4,14.4,73,48,38,29.97,29.80,19,6,19,0.00
2013-11-18,51.3,45.0,40.1,29.8,24.2,19.0,57,44,38,29.94,29.80,27,8,27,0.00
2013-11-19,54.0,45.6,41.4,34.6,30.8,28.0,63,56,43,29.82,29.77,25,8,25,0.00
2013-11-20,42.3,29.8,14.2,34.5,13.3,-3.7,78,51,41,30.27,29.82,15,5,15,0.00
2013-11-21,31.3,14.6,1.8,9.7,-3.7,-14.7,49,44,40,30.50,30.27,11,1,11,0.00
2013-11-22,34.2,16.5,1.6,12.4,-1.8,-14.8,52,44,40,30.53,30.42,9,2,9,0.00
2013-11-23,35.6,16.2,1.9,13.7,-1.8,-14.2,56,44,40,30.44,30.21,8,1,8,0.00
2013-11-24,54.7,25.5,5.4,28.2,5.9,-10.9,78,43,36,30.24,30.12,8,2,8,0.00
2013-11-25,48.9,25.6,11.1,23.6,7.8,-1.1,61,47,37,30.30,30.24,8,1,8,0.00
2013-11-26,49.6,26.7,12.9,24.4,9.0,0.6,66,48,37,30.24,30.09,8,1,8,0.00
2013-11-27,41.9,27.4,16.7,19.1,10.9,3.5,59,50,40,30.09,30.00,8,1,8,0.00
2013-11-28,51.4,26.8,9.5,26.0,10.1,-2.3,73,50,37,30.15,30.03,6,1,6,0.00
2013-11-29,56.3,38.6,22.5,29.5,19.3,12.7,71,47,35,30.24,30.15,11,2,11,0.00
2013-11-30,55.4,40.5,31.1,31.1,25.1,15.2,77,55,37,30.30,30.18,17,2,17,0.00
2013-12-1,57.6,51.2,46.0,34.9,30.0,24.8,58,44,37,30.18,29.88,29,10,29,0.00
2013-12-2,50.0,36.6,24.8,35.5,21.8,9.4,86,56,41,29.91,29.80,22,6,22,0.08
2013-12-3,25.7,19.7,12.0,17.3,6.4,-3.2,71,56,44,30.09,29.88,17,3,17,0.08
2013-12-4,20.5,7.8,-4.7,1.4,-8.5,-20.6,52,46,43,30.15,30.06,10,2,10,0.00
2013-12-5,23.7,7.5,-6.3,4.0,-7.9,-22.1,51,43,42,30.15,30.00,8,2,8,0.00
2013-12-6,11.3,8.8,5.9,-3.3,-5.6,-8.3,51,51,51,30.03,29.85,12,3,12,0.00
2013-12-7,8.1,-1.9,-25.6,-6.3,-15.6,-37.7,51,51,51,30.21,29.88,15,4,15,0.00
2013-12-8,17.1,-4.0,-18.4,0.1,-18.5,-31.2,51,49,46,30.39,30.18,10,3,10,0.00
2013-12-9,28.9,12.2,-2.9,8.5,-4.2,-18.5,56,47,42,30.39,30.27,12,4,12,0.00
2013-12-10,38.1,20.9,6.8,16.5,5.5,-5.2,69,51,40,30.30,30.24,9,2,9,0.00
2013-12-11,40.3,25.5,7.0,17.8,10.5,-5.0,81,54,40,30.27,30.18,11,5,13,0.04
2013-12-12,43.0,32.2,21.2,24.1,14.0,6.1,63,47,39,30.18,30.03,16,5,16,0.00
2013-12-13,48.0,33.3,23.9,25.4,20.5,14.9,88,61,40,30.36,30.12,11,2,12,0.00
2013-12-14,47.1,36.0,26.2,23.4,20.0,16.0,77,53,39,30.36,30.30,19,5,19,0.00
2013-12-15,56.8,41.2,27.9,33.4,22.7,16.8,91,50,35,30.36,30.27,13,3,13,0.00
2013-12-16,51.8,36.7,26.1,31.0,20.1,14.3,92,53,36,30.36,30.24,9,3,9,0.00
2013-12-17,55.6,40.8,30.0,29.0,19.4,14.4,59,42,36,30.24,30.06,13,4,13,0.00
2013-12-18,42.1,35.1,28.6,29.5,21.9,16.6,86,60,43,30.06,29.88,11,2,11,0.00
2013-12-19,31.6,24.6,12.6,21.1,7.9,-0.5,67,49,41,30.15,29.94,0,0,0,0.00
2013-12-20,43.7,32.8,20.7,30.1,20.5,3.2,74,61,44,30.00,29.80,13,2,13,0.00
2013-12-21,50.9,40.4,31.8,31.5,24.2,19.0,84,53,38,30.12,29.82,15,3,15,0.00
2013-12-22,55.4,41.2,32.2,29.5,25.5,19.8,72,55,36,30.27,30.12,8,2,10,0.00
2013-12-23,54.5,44.6,35.6,31.4,24.6,18.8,59,46,36,30.39,30.18,28,5,28,0.00
2013-12-24,46.0,31.4,18.9,24.4,18.4,11.9,88,60,38,30.44,30.36,12,2,12,0.00
2013-12-25,47.5,37.1,27.1,23.1,17.7,11.1,55,45,38,30.39,30.30,12,5,12,0.00
2013-12-26,55.8,41.2,32.5,29.2,19.7,15.0,52,42,35,30.30,30.18,12,5,12,0.00
2013-12-27,49.6,36.6,25.9,24.4,17.0,13.2,61,45,37,30.21,30.09,11,3,11,0.00
2013-12-28,46.2,27.7,15.3,22.0,12.4,4.4,74,54,38,30.36,30.21,6,1,10,0.00
2013-12-29,45.9,30.7,16.9,21.6,12.1,4.7,70,46,38,30.36,30.18,11,3,11,0.00
2013-12-30,47.5,38.8,32.7,22.5,17.9,15.1,51,43,37,30.21,30.12,13,4,13,0.00
2013-12-31,51.4,40.5,30.2,26.0,19.0,13.5,52,42,37,30.27,30.15,9,2,9,0.00
2014-1-1,51.1,34.8,24.8,26.3,19.1,12.0,79,54,38,30.30,30.21,8,2,8,0.00
2014-1-2,55.9,40.9,26.1,29.3,22.8,18.5,84,51,36,30.24,30.00,11,4,15,0.00